Location: Montreal
(45.5087°N, 73.5540°W)
Time: 15:47:01
(UTC-05:00)

ISS - Visible Passes

Search period start: 02 February 2023 00:00
Search period end: 12 February 2023 00:00
Orbit: 412 x 419 km, 51.6° (Epoch: 02 February)

Date Brightness Start Highest point End Pass type
(mag) Time Alt. Az. Time Alt. Az. Time Alt. Az.
02 Feb -3.5 17:55:52 10° WNW 17:59:13 69° SSW 18:02:33 10° SE visible
02 Feb -0.6 19:34:33 10° WSW 19:35:23 11° SW 19:36:09 10° SW visible
03 Feb -1.0 18:44:32 10° W 18:46:53 18° SW 18:49:13 10° S visible
04 Feb -1.7 17:55:20 10° WNW 17:58:18 28° SW 18:01:14 10° SSE visible
06 Feb -0.4 17:55:46 10° WSW 17:57:04 12° SW 17:58:23 10° SSW visible
